RYR84KK LEAM-EBCI

Flight info

Callsign RYR84KK
Flight time 2h 17m
Altitude 34000
Route AGIDO M192 ARPEX DCT BAZAS M192 BLN N865 VTB N867 RBO DCT OSTIX N867 DGO L176 LUSEM DCT LULUT DCT ADABI DCT BOKNO UN858 VANAD UN874 BAMES UT191 PODEM UN873 BAZOS DCT BELDI DCT VEKIN Z173 ARVOL
Aircraft B738/M-SDE3FGILRWY/SB1

Departure

Time 2026-04-27 09:21
Airport Almería Airport (LEAM)

Arrival

Time 2026-04-27 11:39
Airport Brussels South Charleroi Airport (EBCI)
Time Latitude Longitude Altitude Speed Heading
2026-04-27 09:01 36.84650 -2.37256 42 ft 0 kts 242°
2026-04-27 09:17 36.84644 -2.37272 40 ft 8 kts 242°
2026-04-27 09:17 36.84607 -2.37359 41 ft 12 kts 242°
2026-04-27 09:18 36.84567 -2.37455 37 ft 12 kts 242°
2026-04-27 09:18 36.84528 -2.37549 38 ft 12 kts 242°
2026-04-27 09:18 36.84485 -2.37650 36 ft 17 kts 242°
2026-04-27 09:18 36.84426 -2.37793 35 ft 18 kts 242°
2026-04-27 09:19 36.84366 -2.37934 33 ft 18 kts 242°
2026-04-27 09:19 36.84311 -2.38071 31 ft 17 kts 249°
2026-04-27 09:19 36.84273 -2.38215 29 ft 18 kts 252°
2026-04-27 09:19 36.84233 -2.38379 27 ft 20 kts 253°
2026-04-27 09:20 36.84192 -2.38547 30 ft 20 kts 253°
2026-04-27 09:20 36.84152 -2.38713 23 ft 21 kts 251°
2026-04-27 09:20 36.84056 -2.38778 24 ft 17 kts 159°
2026-04-27 09:20 36.83996 -2.38675 23 ft 14 kts 102°
2026-04-27 09:21 36.84024 -2.38508 28 ft 47 kts 74°
2026-04-27 09:21 36.84212 -2.37748 36 ft 133 kts 73°
2026-04-27 09:21 36.84534 -2.36399 366 ft 185 kts 72°
2026-04-27 09:21 36.84941 -2.34724 991 ft 215 kts 73°
2026-04-27 09:22 36.85376 -2.32857 1845 ft 230 kts 72°
2026-04-27 09:22 36.85861 -2.30915 2781 ft 239 kts 71°
2026-04-27 09:22 36.86376 -2.28898 3684 ft 249 kts 73°
2026-04-27 09:22 36.86907 -2.26800 4593 ft 260 kts 74°
2026-04-27 09:23 36.87500 -2.24622 5458 ft 278 kts 67°
2026-04-27 09:23 36.88705 -2.22691 6545 ft 285 kts 39°
2026-04-27 09:23 36.90353 -2.21465 7957 ft 266 kts 28°
2026-04-27 09:23 36.91967 -2.20424 9069 ft 262 kts 28°
2026-04-27 09:24 36.93599 -2.19356 9835 ft 268 kts 28°
2026-04-27 09:24 36.95264 -2.18252 10549 ft 273 kts 28°
2026-04-27 09:24 36.97009 -2.17300 11311 ft 276 kts 10°
2026-04-27 09:24 36.98877 -2.17402 12092 ft 275 kts 341°
2026-04-27 09:25 37.00559 -2.18620 12503 ft 293 kts 314°
2026-04-27 09:25 37.01751 -2.20795 12737 ft 315 kts 299°
2026-04-27 09:25 37.02818 -2.23267 13248 ft 328 kts 297°
2026-04-27 09:25 37.03883 -2.25811 13990 ft 332 kts 297°
2026-04-27 09:26 37.04958 -2.28379 14738 ft 334 kts 297°
2026-04-27 09:26 37.06044 -2.30953 15523 ft 334 kts 297°
2026-04-27 09:26 37.07135 -2.33527 16289 ft 337 kts 297°
2026-04-27 09:26 37.08245 -2.36130 17004 ft 340 kts 298°
2026-04-27 09:27 37.09371 -2.38766 17630 ft 346 kts 298°
2026-04-27 09:27 37.10501 -2.41405 18264 ft 351 kts 298°
2026-04-27 09:27 37.11662 -2.44114 18892 ft 354 kts 297°
2026-04-27 09:27 37.12824 -2.46825 19630 ft 353 kts 297°
2026-04-27 09:28 37.13991 -2.49555 20193 ft 358 kts 297°
2026-04-27 09:28 37.15176 -2.52328 20735 ft 363 kts 297°
2026-04-27 09:28 37.16370 -2.55121 21400 ft 364 kts 297°
2026-04-27 09:28 37.17570 -2.57933 21967 ft 368 kts 297°
2026-04-27 09:29 37.18769 -2.60747 22489 ft 373 kts 297°
2026-04-27 09:29 37.20229 -2.63454 22969 ft 381 kts 313°
2026-04-27 09:29 37.22273 -2.65672 23153 ft 396 kts 320°
2026-04-27 09:29 37.24456 -2.67851 23462 ft 405 kts 320°
2026-04-27 09:30 37.26677 -2.70063 23901 ft 409 kts 320°
2026-04-27 09:30 37.28898 -2.72301 24410 ft 410 kts 320°
2026-04-27 09:30 37.31116 -2.74562 24916 ft 411 kts 319°
2026-04-27 09:30 37.33331 -2.76840 25351 ft 413 kts 319°
2026-04-27 09:31 37.35525 -2.79108 25766 ft 416 kts 319°
2026-04-27 09:31 37.37762 -2.81423 26212 ft 417 kts 319°
2026-04-27 09:31 37.40007 -2.83748 26643 ft 419 kts 319°
2026-04-27 09:31 37.42266 -2.86087 27063 ft 422 kts 319°
2026-04-27 09:32 37.44534 -2.88433 27521 ft 423 kts 319°
2026-04-27 09:32 37.46813 -2.90792 27937 ft 425 kts 319°
2026-04-27 09:32 37.49101 -2.93160 28340 ft 427 kts 319°
2026-04-27 09:32 37.51399 -2.95542 28681 ft 430 kts 319°
2026-04-27 09:33 37.53685 -2.97914 29050 ft 432 kts 319°
2026-04-27 09:33 37.56041 -3.00275 29477 ft 434 kts 325°
2026-04-27 09:33 37.58743 -3.02001 29800 ft 439 kts 340°
2026-04-27 09:33 37.61738 -3.02834 30162 ft 444 kts 352°
2026-04-27 09:34 37.64836 -3.02940 30465 ft 447 kts 358°
2026-04-27 09:34 37.67954 -3.02913 30754 ft 449 kts 358°
2026-04-27 09:34 37.71084 -3.02883 31048 ft 451 kts 358°
2026-04-27 09:34 37.74226 -3.02860 31334 ft 452 kts 358°
2026-04-27 09:35 37.77371 -3.02849 31638 ft 452 kts 358°
2026-04-27 09:35 37.80473 -3.02850 31982 ft 452 kts 358°
2026-04-27 09:35 37.83609 -3.02858 32418 ft 449 kts 358°
2026-04-27 09:35 37.86731 -3.02870 32843 ft 448 kts 358°
2026-04-27 09:36 37.89842 -3.02885 33202 ft 447 kts 357°
2026-04-27 09:36 37.92951 -3.02902 33551 ft 447 kts 357°
2026-04-27 09:36 37.96057 -3.02919 33945 ft 445 kts 357°
2026-04-27 09:36 37.99160 -3.02936 34106 ft 449 kts 357°
2026-04-27 09:37 38.02295 -3.02953 34100 ft 451 kts 357°
2026-04-27 09:37 38.08511 -3.02984 34091 ft 446 kts 357°
2026-04-27 09:38 38.14676 -3.03013 34104 ft 443 kts 357°
2026-04-27 09:38 38.20845 -3.03045 34107 ft 444 kts 357°
2026-04-27 09:39 38.27039 -3.03077 34107 ft 445 kts 357°
2026-04-27 09:39 38.33244 -3.03108 34096 ft 447 kts 357°
2026-04-27 09:40 38.39425 -3.03139 34097 ft 447 kts 357°
2026-04-27 09:40 38.45649 -3.03170 34097 ft 446 kts 357°
2026-04-27 09:40 38.48713 -3.03184 34078 ft 434 kts 357°
2026-04-27 09:41 38.51700 -3.03196 34081 ft 426 kts 357°
2026-04-27 09:41 38.57606 -3.03226 34096 ft 424 kts 357°
2026-04-27 09:42 38.63500 -3.03258 34107 ft 424 kts 357°
2026-04-27 09:42 38.69373 -3.03290 34105 ft 425 kts 357°
2026-04-27 09:43 38.75301 -3.03321 34108 ft 427 kts 357°
2026-04-27 09:43 38.81253 -3.03351 34105 ft 429 kts 357°
2026-04-27 09:44 38.87225 -3.03381 34108 ft 430 kts 357°
2026-04-27 09:44 38.93180 -3.03412 34108 ft 431 kts 357°
2026-04-27 09:45 38.99186 -3.03442 34108 ft 432 kts 357°
2026-04-27 09:45 39.05199 -3.03473 34109 ft 432 kts 357°
2026-04-27 09:46 39.11208 -3.03503 34115 ft 432 kts 358°
2026-04-27 09:46 39.17209 -3.03534 34115 ft 431 kts 358°
2026-04-27 09:47 39.23157 -3.03564 34122 ft 430 kts 358°
2026-04-27 09:47 39.29137 -3.03595 34122 ft 429 kts 358°
2026-04-27 09:48 39.35111 -3.03626 34126 ft 429 kts 357°
2026-04-27 09:48 39.41081 -3.03657 34131 ft 429 kts 357°
2026-04-27 09:49 39.47003 -3.03688 34131 ft 429 kts 358°
2026-04-27 09:49 39.52971 -3.03719 34133 ft 429 kts 358°
2026-04-27 09:50 39.58946 -3.03750 34136 ft 430 kts 358°
2026-04-27 09:50 39.64932 -3.03781 34140 ft 430 kts 358°
2026-04-27 09:51 39.70886 -3.03813 34135 ft 431 kts 358°
2026-04-27 09:51 39.76893 -3.03844 34149 ft 432 kts 358°
2026-04-27 09:52 39.82907 -3.03876 34139 ft 432 kts 358°
2026-04-27 09:52 39.88927 -3.03907 34136 ft 433 kts 358°
2026-04-27 09:53 39.94917 -3.03939 34133 ft 433 kts 358°
2026-04-27 09:53 40.00944 -3.03970 34128 ft 433 kts 358°
2026-04-27 09:54 40.06976 -3.04002 34135 ft 433 kts 358°
2026-04-27 09:54 40.13004 -3.04034 34126 ft 434 kts 358°
2026-04-27 09:55 40.19040 -3.04066 34128 ft 434 kts 358°
2026-04-27 09:55 40.28053 -3.04114 34124 ft 434 kts 358°
2026-04-27 09:56 40.34091 -3.04146 34134 ft 434 kts 358°
2026-04-27 09:56 40.40134 -3.04178 34133 ft 434 kts 358°
2026-04-27 09:57 40.46172 -3.04210 34125 ft 434 kts 358°
2026-04-27 09:57 40.52182 -3.04242 34136 ft 435 kts 358°
2026-04-27 09:58 40.58230 -3.04275 34133 ft 435 kts 358°
2026-04-27 09:58 40.64286 -3.04307 34130 ft 436 kts 358°
2026-04-27 09:59 40.70352 -3.04340 34133 ft 436 kts 358°
2026-04-27 09:59 40.76372 -3.04372 34128 ft 436 kts 358°
2026-04-27 10:00 40.82435 -3.04405 34127 ft 435 kts 358°
2026-04-27 10:00 40.88491 -3.04438 34142 ft 435 kts 358°
2026-04-27 10:01 40.94554 -3.04471 34135 ft 436 kts 358°
2026-04-27 10:01 41.00576 -3.04503 34130 ft 436 kts 358°
2026-04-27 10:02 41.06644 -3.04536 34128 ft 436 kts 358°
2026-04-27 10:02 41.12712 -3.04569 34130 ft 436 kts 358°
2026-04-27 10:03 41.18786 -3.04603 34129 ft 437 kts 358°
2026-04-27 10:03 41.24829 -3.04636 34132 ft 437 kts 358°
2026-04-27 10:04 41.30914 -3.04669 34130 ft 438 kts 358°
2026-04-27 10:04 41.37006 -3.04702 34133 ft 438 kts 358°
2026-04-27 10:05 41.43061 -3.04736 34129 ft 438 kts 358°
2026-04-27 10:05 41.49154 -3.04769 34126 ft 438 kts 358°
2026-04-27 10:06 41.55256 -3.04802 34133 ft 438 kts 358°
2026-04-27 10:06 41.61361 -3.04836 34129 ft 439 kts 358°
2026-04-27 10:07 41.67470 -3.04870 34130 ft 439 kts 358°
2026-04-27 10:07 41.73538 -3.04817 34130 ft 440 kts
2026-04-27 10:08 41.79599 -3.03544 34132 ft 441 kts
2026-04-27 10:08 41.85637 -3.02040 34134 ft 441 kts
2026-04-27 10:09 41.91687 -3.00586 34130 ft 442 kts
2026-04-27 10:09 41.97703 -2.99185 34132 ft 442 kts
2026-04-27 10:10 42.03773 -2.97783 34135 ft 443 kts
2026-04-27 10:10 42.09852 -2.96376 34136 ft 443 kts
2026-04-27 10:11 42.15937 -2.94963 34128 ft 443 kts
2026-04-27 10:11 42.22017 -2.93547 34136 ft 443 kts
2026-04-27 10:12 42.28060 -2.92137 34130 ft 444 kts
2026-04-27 10:12 42.34144 -2.90715 34130 ft 444 kts
2026-04-27 10:13 42.40232 -2.89290 34141 ft 444 kts
2026-04-27 10:13 42.46074 -2.86592 34145 ft 448 kts 28°
2026-04-27 10:14 42.48675 -2.84256 34136 ft 450 kts 39°
2026-04-27 10:14 42.51003 -2.81515 34154 ft 450 kts 41°
2026-04-27 10:14 42.55641 -2.75792 34147 ft 451 kts 41°
2026-04-27 10:15 42.60298 -2.70064 34162 ft 453 kts 41°
2026-04-27 10:15 42.64994 -2.64356 34165 ft 453 kts 41°
2026-04-27 10:16 42.69697 -2.58657 34162 ft 453 kts 41°
2026-04-27 10:16 42.74366 -2.52989 34169 ft 453 kts 41°
2026-04-27 10:17 42.79055 -2.47283 34165 ft 451 kts 41°
2026-04-27 10:17 42.83725 -2.41586 34162 ft 450 kts 41°
2026-04-27 10:18 42.88384 -2.35889 34168 ft 449 kts 41°
2026-04-27 10:18 42.92999 -2.30235 34153 ft 449 kts 41°
2026-04-27 10:19 42.97635 -2.24545 34144 ft 448 kts 41°
2026-04-27 10:19 43.02255 -2.18848 34161 ft 447 kts 41°
2026-04-27 10:20 43.06835 -2.13179 34163 ft 447 kts 41°
2026-04-27 10:20 43.11446 -2.07464 34166 ft 448 kts 41°
2026-04-27 10:21 43.16070 -2.01730 34161 ft 449 kts 41°
2026-04-27 10:21 43.20698 -1.95979 34162 ft 449 kts 41°
2026-04-27 10:22 43.25324 -1.90216 34156 ft 449 kts 41°
2026-04-27 10:22 43.29946 -1.84455 34184 ft 449 kts 40°
2026-04-27 10:23 43.35085 -1.79793 34191 ft 446 kts 27°
2026-04-27 10:23 43.40491 -1.75610 34186 ft 446 kts 31°
2026-04-27 10:24 43.45672 -1.70918 34194 ft 446 kts 33°
2026-04-27 10:24 43.50823 -1.66144 34189 ft 446 kts 33°
2026-04-27 10:25 43.55994 -1.61405 34184 ft 446 kts 32°
2026-04-27 10:25 43.61149 -1.56717 34176 ft 447 kts 32°
2026-04-27 10:26 43.66348 -1.51990 34163 ft 448 kts 32°
2026-04-27 10:26 43.71550 -1.47251 34171 ft 448 kts 32°
2026-04-27 10:27 43.76761 -1.42493 34164 ft 449 kts 32°
2026-04-27 10:27 43.81975 -1.37720 34162 ft 449 kts 32°
2026-04-27 10:28 43.87158 -1.32967 34169 ft 450 kts 32°
2026-04-27 10:28 43.92379 -1.28167 34168 ft 451 kts 32°
2026-04-27 10:29 43.97604 -1.23353 34169 ft 451 kts 32°
2026-04-27 10:29 44.02832 -1.18527 34180 ft 451 kts 32°
2026-04-27 10:30 44.08026 -1.13722 34166 ft 452 kts 32°
2026-04-27 10:30 44.13256 -1.08872 34171 ft 452 kts 32°
2026-04-27 10:31 44.18484 -1.04014 34170 ft 452 kts 32°
2026-04-27 10:31 44.23711 -0.99147 34169 ft 452 kts 32°
2026-04-27 10:32 44.28930 -0.94276 34169 ft 452 kts 32°
2026-04-27 10:32 44.34115 -0.89425 34167 ft 451 kts 32°
2026-04-27 10:33 44.39337 -0.84551 34162 ft 451 kts 31°
2026-04-27 10:33 44.44940 -0.80689 34174 ft 449 kts 21°
2026-04-27 10:34 44.50658 -0.77320 34164 ft 449 kts 20°
2026-04-27 10:34 44.56417 -0.73899 34160 ft 450 kts 21°
2026-04-27 10:35 44.62161 -0.70414 34161 ft 450 kts 21°
2026-04-27 10:35 44.67903 -0.66892 34156 ft 450 kts 21°
2026-04-27 10:36 44.73642 -0.63358 34157 ft 450 kts 21°
2026-04-27 10:36 44.79338 -0.59843 34159 ft 450 kts 21°
2026-04-27 10:37 44.85077 -0.56297 34157 ft 450 kts 21°
2026-04-27 10:37 44.90817 -0.52742 34158 ft 450 kts 21°
2026-04-27 10:38 44.96554 -0.49182 34154 ft 451 kts 21°
2026-04-27 10:38 45.02254 -0.45637 34163 ft 451 kts 21°
2026-04-27 10:39 45.08004 -0.42053 34160 ft 452 kts 21°
2026-04-27 10:39 45.13768 -0.38453 34152 ft 453 kts 21°
2026-04-27 10:40 45.19537 -0.34840 34162 ft 454 kts 21°
2026-04-27 10:40 45.25277 -0.31239 34153 ft 455 kts 21°
2026-04-27 10:41 45.31071 -0.27595 34157 ft 456 kts 21°
2026-04-27 10:41 45.36873 -0.23938 34160 ft 457 kts 21°
2026-04-27 10:42 45.42683 -0.20267 34159 ft 458 kts 21°
2026-04-27 10:42 45.48467 -0.16605 34157 ft 458 kts 21°
2026-04-27 10:43 45.54292 -0.12908 34162 ft 459 kts 21°
2026-04-27 10:43 45.60130 -0.09195 34164 ft 459 kts 21°
2026-04-27 10:44 45.65971 -0.05472 34163 ft 460 kts 21°
2026-04-27 10:44 45.71824 -0.01732 34168 ft 461 kts 21°
2026-04-27 10:45 45.77639 0.01993 34166 ft 461 kts 21°
2026-04-27 10:45 45.83487 0.05747 34155 ft 460 kts 21°
2026-04-27 10:46 45.89327 0.09505 34164 ft 460 kts 21°
2026-04-27 10:46 45.95161 0.13267 34161 ft 459 kts 21°
2026-04-27 10:47 46.00985 0.17031 34167 ft 459 kts 21°
2026-04-27 10:47 46.06778 0.20784 34169 ft 460 kts 21°
2026-04-27 10:48 46.12611 0.24572 34166 ft 460 kts 21°
2026-04-27 10:48 46.18452 0.28374 34183 ft 461 kts 21°
2026-04-27 10:49 46.24313 0.32198 34177 ft 463 kts 21°
2026-04-27 10:49 46.30148 0.36014 34172 ft 464 kts 21°
2026-04-27 10:50 46.36037 0.39875 34171 ft 465 kts 21°
2026-04-27 10:50 46.41935 0.43751 34179 ft 466 kts 21°
2026-04-27 10:51 46.47835 0.47639 34179 ft 465 kts 21°
2026-04-27 10:51 46.53688 0.51502 34179 ft 465 kts 21°
2026-04-27 10:52 46.59748 0.54499 34193 ft 458 kts
2026-04-27 10:52 46.65970 0.56455 34173 ft 457 kts
2026-04-27 10:53 46.75285 0.59417 34172 ft 457 kts
2026-04-27 10:54 46.81441 0.61450 34182 ft 457 kts
2026-04-27 10:54 46.87638 0.63511 34176 ft 457 kts
2026-04-27 10:55 46.93835 0.65574 34171 ft 457 kts
2026-04-27 10:55 47.00037 0.67641 34185 ft 457 kts
2026-04-27 10:56 47.06221 0.69516 34173 ft 454 kts
2026-04-27 10:56 47.12506 0.70202 34176 ft 453 kts 358°
2026-04-27 10:57 47.18794 0.70714 34194 ft 453 kts 359°
2026-04-27 10:57 47.24033 0.71211 34190 ft 454 kts 359°
2026-04-27 10:58 47.31370 0.71975 34188 ft 455 kts 359°
2026-04-27 10:58 47.37692 0.72644 34182 ft 456 kts 359°
2026-04-27 10:59 47.42947 0.73198 34189 ft 456 kts 359°
2026-04-27 10:59 47.49288 0.73970 34177 ft 460 kts
2026-04-27 11:00 47.59537 0.78664 34192 ft 466 kts 16°
2026-04-27 11:00 47.64680 0.81283 34193 ft 466 kts 15°
2026-04-27 11:01 47.70794 0.84320 34180 ft 466 kts 15°
2026-04-27 11:01 47.76950 0.87356 34204 ft 466 kts 14°
2026-04-27 11:02 47.83101 0.90400 34204 ft 466 kts 14°
2026-04-27 11:02 47.89246 0.93482 34204 ft 466 kts 15°
2026-04-27 11:03 47.95340 0.96573 34200 ft 466 kts 15°
2026-04-27 11:03 48.01473 0.99687 34220 ft 465 kts 15°
2026-04-27 11:04 48.07605 1.02806 34210 ft 466 kts 15°
2026-04-27 11:04 48.13745 1.05935 34208 ft 466 kts 15°
2026-04-27 11:05 48.19884 1.09071 34210 ft 466 kts 15°
2026-04-27 11:05 48.25986 1.12186 34222 ft 467 kts 15°
2026-04-27 11:06 48.32136 1.15318 34214 ft 467 kts 15°
2026-04-27 11:06 48.38280 1.18457 34211 ft 466 kts 15°
2026-04-27 11:07 48.44432 1.21516 34232 ft 464 kts 12°
2026-04-27 11:07 48.50604 1.24039 34217 ft 462 kts 10°
2026-04-27 11:08 48.56813 1.26473 34213 ft 461 kts 10°
2026-04-27 11:08 48.63001 1.28968 34218 ft 459 kts 11°
2026-04-27 11:09 48.69160 1.31503 34216 ft 458 kts 11°
2026-04-27 11:09 48.75247 1.34023 34224 ft 455 kts 11°
2026-04-27 11:10 48.81344 1.36552 34232 ft 454 kts 11°
2026-04-27 11:10 48.87428 1.39080 34235 ft 453 kts 11°
2026-04-27 11:11 48.93502 1.41610 34237 ft 453 kts 11°
2026-04-27 11:11 48.99537 1.44129 34243 ft 453 kts 11°
2026-04-27 11:12 49.05616 1.46674 34237 ft 454 kts 11°
2026-04-27 11:12 49.11710 1.49232 34248 ft 454 kts 11°
2026-04-27 11:13 49.17803 1.51797 34237 ft 454 kts 11°
2026-04-27 11:13 49.23823 1.54545 34222 ft 458 kts 19°
2026-04-27 11:14 49.29278 1.59667 34226 ft 466 kts 39°
2026-04-27 11:14 49.33965 1.66541 34242 ft 467 kts 42°
2026-04-27 11:15 49.38601 1.73507 34235 ft 466 kts 41°
2026-04-27 11:15 49.43274 1.80401 34238 ft 466 kts 41°
2026-04-27 11:16 49.47921 1.87223 34238 ft 465 kts 41°
2026-04-27 11:16 49.52593 1.94106 34248 ft 465 kts 41°
2026-04-27 11:17 49.57259 2.01001 34236 ft 465 kts 41°
2026-04-27 11:17 49.61917 2.07901 34233 ft 465 kts 41°
2026-04-27 11:18 49.66540 2.14770 34243 ft 464 kts 41°
2026-04-27 11:18 49.71189 2.21698 34243 ft 464 kts 41°
2026-04-27 11:19 49.75831 2.28634 34247 ft 464 kts 41°
2026-04-27 11:19 49.78162 2.32124 33799 ft 468 kts 41°
2026-04-27 11:19 49.80492 2.35619 33275 ft 465 kts 41°
2026-04-27 11:20 49.82783 2.39060 32702 ft 464 kts 41°
2026-04-27 11:20 49.85101 2.42545 32077 ft 465 kts 41°
2026-04-27 11:20 49.87422 2.46042 31480 ft 465 kts 41°
2026-04-27 11:20 49.89738 2.49534 30885 ft 464 kts 41°
2026-04-27 11:21 49.92047 2.53021 30299 ft 464 kts 41°
2026-04-27 11:21 49.94374 2.56537 29659 ft 469 kts 41°
2026-04-27 11:21 49.96715 2.60083 28998 ft 472 kts 41°
2026-04-27 11:21 49.99061 2.63652 28349 ft 472 kts 42°
2026-04-27 11:22 50.01371 2.67177 27721 ft 471 kts 42°
2026-04-27 11:22 50.03697 2.70734 27125 ft 469 kts 42°
2026-04-27 11:22 50.06017 2.74287 26616 ft 465 kts 42°
2026-04-27 11:22 50.08318 2.77814 26120 ft 466 kts 42°
2026-04-27 11:23 50.10632 2.81364 25630 ft 467 kts 42°
2026-04-27 11:23 50.12937 2.84906 25146 ft 462 kts 42°
2026-04-27 11:23 50.15212 2.88409 24670 ft 457 kts 42°
2026-04-27 11:23 50.17458 2.91870 24207 ft 452 kts 42°
2026-04-27 11:24 50.19683 2.95303 23732 ft 447 kts 42°
2026-04-27 11:24 50.21854 2.98658 23190 ft 443 kts 42°
2026-04-27 11:24 50.24037 3.02036 22655 ft 440 kts 42°
2026-04-27 11:24 50.26201 3.05388 22129 ft 437 kts 42°
2026-04-27 11:25 50.28350 3.08721 21612 ft 434 kts 42°
2026-04-27 11:25 50.30484 3.12036 21108 ft 431 kts 43°
2026-04-27 11:25 50.32600 3.15327 20608 ft 428 kts 43°
2026-04-27 11:25 50.34703 3.18603 20114 ft 425 kts 43°
2026-04-27 11:26 50.36791 3.21859 19631 ft 422 kts 43°
2026-04-27 11:26 50.38863 3.25095 19167 ft 420 kts 42°
2026-04-27 11:26 50.40925 3.28318 18699 ft 417 kts 42°
2026-04-27 11:26 50.42940 3.31460 18187 ft 412 kts 42°
2026-04-27 11:27 50.44959 3.34609 17650 ft 406 kts 42°
2026-04-27 11:27 50.46951 3.37717 17123 ft 401 kts 42°
2026-04-27 11:27 50.48917 3.40790 16605 ft 396 kts 43°
2026-04-27 11:27 50.50861 3.43832 16099 ft 392 kts 43°
2026-04-27 11:28 50.52782 3.46843 15595 ft 388 kts 43°
2026-04-27 11:28 50.54523 3.50056 15079 ft 388 kts 58°
2026-04-27 11:28 50.55524 3.53968 14630 ft 385 kts 72°
2026-04-27 11:28 50.56206 3.58013 14142 ft 379 kts 81°
2026-04-27 11:29 50.56189 3.62011 13605 ft 366 kts 100°
2026-04-27 11:29 50.55554 3.65814 13082 ft 354 kts 112°
2026-04-27 11:29 50.54573 3.69299 12560 ft 346 kts 116°
2026-04-27 11:29 50.53550 3.72711 11990 ft 343 kts 116°
2026-04-27 11:30 50.52533 3.76080 11442 ft 339 kts 116°
2026-04-27 11:30 50.51536 3.79397 10908 ft 333 kts 116°
2026-04-27 11:30 50.50561 3.82660 10375 ft 327 kts 115°
2026-04-27 11:30 50.49606 3.85868 9841 ft 321 kts 116°
2026-04-27 11:31 50.48684 3.88971 9318 ft 314 kts 115°
2026-04-27 11:31 50.47768 3.92056 8808 ft 309 kts 115°
2026-04-27 11:31 50.46869 3.95086 8292 ft 304 kts 115°
2026-04-27 11:31 50.45988 3.98054 7909 ft 295 kts 115°
2026-04-27 11:32 50.45132 4.00936 7547 ft 288 kts 115°
2026-04-27 11:32 50.44296 4.03749 7184 ft 281 kts 116°
2026-04-27 11:32 50.43489 4.06458 6798 ft 268 kts 116°
2026-04-27 11:32 50.42711 4.09063 6298 ft 259 kts 115°
2026-04-27 11:33 50.41972 4.11541 5784 ft 242 kts 115°
2026-04-27 11:33 50.41290 4.13824 5290 ft 228 kts 115°
2026-04-27 11:33 50.40639 4.16004 4794 ft 214 kts 114°
2026-04-27 11:33 50.40022 4.18068 4210 ft 206 kts 114°
2026-04-27 11:34 50.39433 4.20058 3815 ft 191 kts 110°
2026-04-27 11:34 50.39371 4.21974 3620 ft 170 kts 69°
2026-04-27 11:34 50.39789 4.23588 3454 ft 154 kts 67°
2026-04-27 11:34 50.40196 4.25125 3223 ft 150 kts 66°
2026-04-27 11:35 50.40579 4.26571 3057 ft 140 kts 69°
2026-04-27 11:35 50.40971 4.27972 2897 ft 143 kts 63°
2026-04-27 11:35 50.41389 4.29395 2739 ft 143 kts 66°
2026-04-27 11:35 50.41798 4.30870 2480 ft 145 kts 65°
2026-04-27 11:36 50.42217 4.32286 2284 ft 139 kts 64°
2026-04-27 11:36 50.42606 4.33620 2097 ft 131 kts 64°
2026-04-27 11:36 50.42979 4.34914 1929 ft 132 kts 64°
2026-04-27 11:36 50.43378 4.36287 1772 ft 143 kts 64°
2026-04-27 11:37 50.43780 4.37704 1430 ft 143 kts 64°
2026-04-27 11:37 50.44200 4.39088 1299 ft 138 kts 63°
2026-04-27 11:37 50.44598 4.40459 1105 ft 139 kts 64°
2026-04-27 11:37 50.44983 4.41815 948 ft 139 kts 65°
2026-04-27 11:38 50.45385 4.43195 774 ft 140 kts 63°
2026-04-27 11:38 50.45775 4.44568 611 ft 133 kts 63°
2026-04-27 11:38 50.46122 4.45754 595 ft 100 kts 65°
2026-04-27 11:38 50.46348 4.46533 589 ft 57 kts 65°
2026-04-27 11:39 50.46442 4.46845 593 ft 19 kts 52°
2026-04-27 11:39 50.46537 4.46876 593 ft 8 kts 341°
2026-04-27 11:39 50.46598 4.46842 592 ft 12 kts 339°
2026-04-27 11:39 50.46678 4.46816 589 ft 9 kts 36°
2026-04-27 11:40 50.46717 4.46927 588 ft 13 kts 65°
2026-04-27 11:40 50.46755 4.47062 587 ft 10 kts 66°
2026-04-27 11:40 50.46793 4.47143 587 ft 9 kts 12°
2026-04-27 11:40 50.46851 4.47112 584 ft 7 kts 336°
2026-04-27 11:41 50.46871 4.47098 584 ft 0 kts 335°